Location: Kikino
(54.4440°N, 112.0940°W)
Time: 03:44:55
(UTC+00:00)

Vanguard 1 Rocket - All Passes

Search period start: 24 May 2024 00:00
Search period end: 03 June 2024 00:00
Orbit: 650 x 4220 km, 34.3° (Epoch: 22 May)

Date Brightness Start Highest point End Pass type
(mag) Time Alt. Az. Time Alt. Az. Time Alt. Az.
24 May - 13:54:52 10° S 14:06:43 17° SE 14:16:11 10° ESE daylight
24 May - 16:17:17 10° SW 16:33:23 29° SSE 16:43:45 10° ESE daylight
24 May - 18:46:08 10° WSW 18:59:09 28° SSW 19:07:07 10° SE daylight
24 May - 21:17:46 10° WSW 21:22:50 14° SW 21:26:48 10° S daylight
25 May - 12:48:35 10° SSE 12:53:44 11° SE 12:58:29 10° ESE daylight
25 May - 15:03:52 10° SSW 15:20:19 26° SSE 15:31:44 10° ESE daylight
25 May - 17:31:03 10° SW 17:46:49 32° S 17:56:25 10° SE daylight
25 May - 20:01:39 10° WSW 20:11:35 22° SSW 20:18:08 10° SSE daylight
26 May - 13:51:50 10° S 14:07:04 21° SSE 14:18:43 10° ESE daylight
26 May - 16:16:21 10° SW 16:34:00 32° S 16:45:10 10° ESE daylight
26 May - 18:46:05 10° WSW 18:59:49 29° SSW 19:08:12 10° SE daylight
26 May - 21:19:02 10° WSW 21:23:18 13° SW 21:26:50 10° SSW daylight
27 May - 12:42:16 10° SSE 12:53:51 16° SE 13:03:47 10° ESE daylight
27 May - 15:02:24 10° SSW 15:20:46 30° SSE 15:33:19 10° ESE daylight
27 May - 17:30:40 10° WSW 17:47:27 33° S 17:57:36 10° SE daylight
27 May - 20:02:03 10° WSW 20:12:07 21° SSW 20:18:52 10° SSE daylight
28 May - 13:49:39 10° SSW 14:07:19 26° SSE 14:20:37 10° ESE daylight
28 May - 16:15:37 10° SW 16:34:31 35° S 16:46:26 10° ESE daylight
28 May - 18:46:06 10° WSW 19:00:22 29° SSW 19:09:10 10° SSE daylight
28 May - 21:20:59 10° WSW 21:23:39 11° SW 21:26:00 10° SW daylight
29 May - 12:38:44 10° S 12:53:54 20° SE 13:06:35 10° ESE daylight
29 May - 15:01:17 10° SW 15:21:09 34° SSE 15:34:39 10° ESE daylight
29 May - 17:30:24 10° WSW 17:47:59 35° SSW 17:58:40 10° SE daylight
29 May - 20:02:34 10° WSW 20:12:31 20° SW 20:19:23 10° S daylight
30 May - 11:31:17 10° SSE 11:40:46 13° SE 11:49:34 10° ESE daylight
30 May - 13:48:02 10° SSW 14:07:31 30° SSE 14:22:08 10° ESE daylight
30 May - 16:15:05 10° WSW 16:34:59 37° S 16:47:33 10° ESE daylight
30 May - 18:46:11 10° WSW 19:00:49 28° SSW 19:09:58 10° SSE daylight
31 May - 12:36:17 10° S 12:53:53 24° SE 13:08:34 10° ESE daylight
31 May - 15:00:28 10° SW 15:21:28 37° S 15:35:50 10° ESE daylight
31 May - 17:30:14 10° WSW 17:48:25 35° SSW 17:59:37 10° SE daylight
31 May - 20:03:14 10° WSW 20:12:47 18° SW 20:19:36 10° S daylight
01 Jun - 11:26:50 10° SSE 11:40:33 18° SE 11:53:07 10° ESE daylight
01 Jun - 13:46:50 10° SSW 14:07:38 34° SSE 14:23:24 10° ESE daylight
01 Jun - 16:14:42 10° WSW 16:35:20 39° S 16:48:33 10° ESE daylight
01 Jun - 18:46:21 10° W 19:01:07 27° SSW 19:10:35 10° SSE daylight
02 Jun - 10:24:48 10° SE 10:27:42 10° SE 10:30:35 10° ESE daylight
02 Jun - 12:34:32 10° SSW 12:53:49 28° SSE 13:10:04 10° E daylight
02 Jun - 14:59:52 10° SW 15:21:43 39° S 15:36:52 10° ESE daylight
02 Jun - 17:30:09 10° WSW 17:48:44 34° SSW 18:00:24 10° SE daylight
02 Jun - 20:04:09 10° WSW 20:12:53 16° SW 20:19:27 10° SSW daylight
